(213355) = 2001 TE15

Discovered at Palomar on 2001-10-11 by NEAT.

Orbit

Orbit type: Main Belt

Note: WebGL enabled browser required.

epoch2023-09-13.0
epoch JD2460200.5
perihelion date2019-05-27.76651
perihelion JD2458631.26651
argument of perihelion (°)186.91858
ascending node (°)156.37373
inclination (°)10.50523
eccentricity0.2575378
perihelion distance (AU)2.0204787
Tisserand w.r.t. Jupiter3.3
ΔV w.r.t. Earth (km/sec)9.5
semimajor axis (AU)2.7213220
mean anomaly (°)344.52561
mean daily motion (°/day)0.21955030
aphelion distance (AU)3.422
period (years)4.49
P-vector [x]0.95697470
P-vector [y]-0.25672712
P-vector [z]-0.13524281
Q-vector [x]0.28082050
Q-vector [y]0.93675932
Q-vector [z]0.20885836
absolute magnitude16.06
phase slope0.15
uncertainty0
referenceMPEC 2024-A34
observations used510
oppositions17
arc length (days)8091
first opposition used2001
last opposition used2023
residual rms (arc-secs)0.83
perturbers coarse indicatorM-v
perturbers precise indicator003Ek
first observation date used2001-09-16.0
last observation date used2023-11-11.0
computer nameMPCLINUX
JD of orbit computation2456966.745128
perihelion JD uncertainty (days)3.7752E-05
argument of perihelion uncertainty (°)2.5318E-05
ascending node uncertainty (°)2.3892E-05
inclination uncertainty (°)4.5249E-06
eccentricity uncertainty 4.9883E-08
perihelion distance uncertainty (AU)1.4176E-07
Minimum Orbit Intersection Distances (in AU)
for orbit epoch: 2460200.5, reference: E2024-A34
Mercury1.63379
Venus1.29374
Earth1.01225
Mars0.63773
Jupiter1.98345
Saturn5.89415
Uranus15.0247
Neptune27.0831

Observations

526 total observations over interval: 2001 09 16.43645 – 2023 11 11.096401
These data are available for download (format description).

Date (UT) J2000 RA J2000 Dec Magn Location Ref
2001 09 16.43645 02 44 43.09 +03 36 10.4 19.2   704 – Lincoln Laboratory ETS, New Mexico MPS 44114
2001 09 16.45122 02 44 43.16 +03 36 02.7 20.0   704 – Lincoln Laboratory ETS, New Mexico MPS 44114
2001 09 16.46555 02 44 43.17 +03 35 54.7 19.8   704 – Lincoln Laboratory ETS, New Mexico MPS 44114
2001 09 16.47977 02 44 43.18 +03 35 48.3 19.6   704 – Lincoln Laboratory ETS, New Mexico MPS 44114
2001 09 17.34313 02 44 47.60 +03 28 27.8 19.0 R 699 – Lowell Observatory-LONEOS MPS 44114
2001 09 17.37065 02 44 47.71 +03 28 14.2   699 – Lowell Observatory-LONEOS MPS 44114
2001 09 17.38818 02 44 47.63 +03 28 06.8 19.9 R 683 – Goodricke-Pigott Observatory, Tucson MPS 44114
2001 09 17.39827 02 44 47.77 +03 28 00.5   699 – Lowell Observatory-LONEOS MPS 44114
2001 09 17.39931 02 44 47.76 +03 27 58.7 19.7 R 683 – Goodricke-Pigott Observatory, Tucson MPS 44114
2001 09 17.41307 02 44 47.86 +03 27 52.2 19.7 R 683 – Goodricke-Pigott Observatory, Tucson MPS 44114
2001 09 17.42582 02 44 47.78 +03 27 46.4   699 – Lowell Observatory-LONEOS MPS 44114
2001 09 19.38256 02 44 51.28 +03 10 50.2 19.7 R 683 – Goodricke-Pigott Observatory, Tucson MPS 44114
2001 09 19.39391 02 44 51.28 +03 10 44.2 20.0 R 683 – Goodricke-Pigott Observatory, Tucson MPS 44114
2001 09 19.40712 02 44 51.05 +03 10 34.5 19.5 R 683 – Goodricke-Pigott Observatory, Tucson MPS 44114
2001 09 25.34353 02 44 15.43 +02 16 37.1 18.7   704 – Lincoln Laboratory ETS, New Mexico MPS 49546
2001 09 25.35859 02 44 15.22 +02 16 28.2 19.0   704 – Lincoln Laboratory ETS, New Mexico MPS 49546
2001 09 25.37334 02 44 15.00 +02 16 20.1 19.4   704 – Lincoln Laboratory ETS, New Mexico MPS 49546
2001 09 25.38822 02 44 14.79 +02 16 11.4 19.1   704 – Lincoln Laboratory ETS, New Mexico MPS 49546
2001 09 25.40362 02 44 14.57 +02 16 03.1 18.8   704 – Lincoln Laboratory ETS, New Mexico MPS 49546
2001 10 11.48230 02 37 20.68 -00 18 00.7 19.7   644 – Palomar Mountain/NEAT MPS 38331
2001 10 11.50370 02 37 19.82 -00 18 12.7 19.4   644 – Palomar Mountain/NEAT MPS 38331
2001 10 11.52727 02 37 18.90 -00 18 25.9 19.7   644 – Palomar Mountain/NEAT MPS 38331
2001 10 12.46483 02 36 43.07 -00 27 09.8 19.5   608 – Haleakala-AMOS MPS 38331
2001 10 12.47560 02 36 42.62 -00 27 15.5 19.5   608 – Haleakala-AMOS MPS 38331
2001 10 12.48611 02 36 42.18 -00 27 21.6 19.2   608 – Haleakala-AMOS MPS 38331
2001 10 15.44669 02 34 41.27 -00 54 29.1 18.5   644 – Palomar Mountain/NEAT MPS 39434
2001 10 15.45723 02 34 40.80 -00 54 34.7 18.5   644 – Palomar Mountain/NEAT MPS 39434
2001 10 15.46791 02 34 40.32 -00 54 40.4 18.8   644 – Palomar Mountain/NEAT MPS 39434
2001 10 16.33546 02 34 03.37 -01 02 26.0 18.6   704 – Lincoln Laboratory ETS, New Mexico MPS 38331
2001 10 16.35079 02 34 02.63 -01 02 32.6 18.8   704 – Lincoln Laboratory ETS, New Mexico MPS 38331
2001 10 16.36626 02 34 01.85 -01 02 42.8 19.1   704 – Lincoln Laboratory ETS, New Mexico MPS 38331
2001 10 16.38356 02 34 01.20 -01 02 52.6 18.9   704 – Lincoln Laboratory ETS, New Mexico MPS 38331
2001 10 16.39911 02 34 00.44 -01 02 59.6 19.0   704 – Lincoln Laboratory ETS, New Mexico MPS 38331
2001 10 23.26959 02 28 46.79 -02 00 05.9 18.3 R 699 – Lowell Observatory-LONEOS MPS 40722
2001 10 23.29778 02 28 45.42 -02 00 18.6   699 – Lowell Observatory-LONEOS MPS 40722
2001 10 23.32600 02 28 44.02 -02 00 31.2   699 – Lowell Observatory-LONEOS MPS 40722
2001 10 23.35427 02 28 42.57 -02 00 44.8   699 – Lowell Observatory-LONEOS MPS 40722
2001 10 23.40654 02 28 39.97 -02 01 08.8 18.5   644 – Palomar Mountain/NEAT MPS 40722
2001 10 23.42764 02 28 38.92 -02 01 18.5 18.5   644 – Palomar Mountain/NEAT MPS 40722
2001 10 23.44892 02 28 37.85 -02 01 28.3 18.6   644 – Palomar Mountain/NEAT MPS 40722
2001 11 07.43086 02 16 50.83 -03 29 09.7 18.8   644 – Palomar Mountain/NEAT MPS 40722
2001 11 07.44315 02 16 50.26 -03 29 12.7 19.2   644 – Palomar Mountain/NEAT MPS 40722
2001 11 07.46209 02 16 49.39 -03 29 17.2 19.2   644 – Palomar Mountain/NEAT MPS 40722
2001 11 18.24151 02 09 53.12 -03 53 47.2 19.1   704 – Lincoln Laboratory ETS, New Mexico MPS 41990
2001 11 18.25611 02 09 52.71 -03 53 48.7 19.2   704 – Lincoln Laboratory ETS, New Mexico MPS 41990
2001 11 18.27100 02 09 52.23 -03 53 48.8 19.3   704 – Lincoln Laboratory ETS, New Mexico MPS 41990
2001 11 18.28591 02 09 51.72 -03 53 49.8 19.1   704 – Lincoln Laboratory ETS, New Mexico MPS 41990
2002 01 09.093700 02 16 26.755 +00 18 29.28 20.55 V 645 – Apache Point-Sloan Digital Sky Survey MPS 137927
2002 01 09.097172 02 16 26.905 +00 18 30.95 21.42   645 – Apache Point-Sloan Digital Sky Survey MPS 137927
2002 01 10.75285 02 17 41.77 +00 32 27.9 20.5   209 – Asiago Observatory, Cima Ekar-ADAS MPS 78114
2002 01 14.108970 02 20 22.902 +01 01 14.30 20.84 V 645 – Apache Point-Sloan Digital Sky Survey MPS 137927
2002 01 14.112442 02 20 23.057 +01 01 16.09 21.74   645 – Apache Point-Sloan Digital Sky Survey MPS 137927
2003 01 28.357110 08 58 58.467 +10 36 47.60 20.89 V 645 – Apache Point-Sloan Digital Sky Survey MPS 137927
2003 01 28.360582 08 58 58.295 +10 36 48.81 21.73   645 – Apache Point-Sloan Digital Sky Survey MPS 137927
2004 03 21.38456 12 57 55.32 +02 33 38.4 21.4 V 691 – Steward Observatory, Kitt Peak-Spacewatch MPS 137927
2004 03 21.41348 12 57 54.04 +02 33 50.7 21.5 V 691 – Steward Observatory, Kitt Peak-Spacewatch MPS 137927
2004 03 21.44181 12 57 52.76 +02 34 03.3 21.4 V 691 – Steward Observatory, Kitt Peak-Spacewatch MPS 137927
2005 06 27.26253 19 23 56.72 -06 57 01.7 18.7   644 – Palomar Mountain/NEAT MPS 137927
2005 06 27.34536 19 23 53.04 -06 57 13.4 18.8   644 – Palomar Mountain/NEAT MPS 137927
2005 06 27.40980 19 23 50.15 -06 57 22.4 18.5   644 – Palomar Mountain/NEAT MPS 137927
2008 02 28.25220 11 00 28.62 +07 53 32.0 20.1 V G96 – Mt. Lemmon Survey MPS 239324
2008 02 28.26038 11 00 28.22 +07 53 35.3 20.1 V G96 – Mt. Lemmon Survey MPS 239324
2008 02 28.26858 11 00 27.82 +07 53 38.9 20.8 V G96 – Mt. Lemmon Survey MPS 239324
2008 02 28.27677 11 00 27.46 +07 53 42.1 20.8 V G96 – Mt. Lemmon Survey MPS 239324
2008 02 29.24705 10 59 42.39 +08 00 32.9   291 – LPL/Spacewatch II MPS 239324
2008 02 29.26200 10 59 41.70 +08 00 39.0   291 – LPL/Spacewatch II MPS 239324
2008 02 29.27795 10 59 40.92 +08 00 46.0   291 – LPL/Spacewatch II MPS 239324
2008 02 29.37027 10 59 36.49 +08 01 24.6 20.6 V G96 – Mt. Lemmon Survey MPS 239324
2008 02 29.37562 10 59 36.27 +08 01 26.8 20.6 V G96 – Mt. Lemmon Survey MPS 239324
2008 02 29.38176 10 59 35.95 +08 01 29.5 20.5 V G96 – Mt. Lemmon Survey MPS 239324
2008 02 29.38700 10 59 35.70 +08 01 31.6 20.6 V G96 – Mt. Lemmon Survey MPS 239324
2008 03 14.37523 10 48 48.56 +09 37 36.0 21.4 V G96 – Mt. Lemmon Survey MPS 241984
2008 03 14.38407 10 48 48.16 +09 37 38.7 20.3 V G96 – Mt. Lemmon Survey MPS 241984
2008 03 14.39889 10 48 47.52 +09 37 45.4 22.1 V G96 – Mt. Lemmon Survey MPS 241984
2008 03 14.40609 10 48 47.12 +09 37 47.5 21.0 V G96 – Mt. Lemmon Survey MPS 241984
2008 03 26.17420 10 40 45.59 +10 48 06.2   691 – Steward Observatory, Kitt Peak-Spacewatch MPS 243975
2008 03 26.19302 10 40 44.89 +10 48 11.7   691 – Steward Observatory, Kitt Peak-Spacewatch MPS 243975
2008 03 26.21183 10 40 44.14 +10 48 18.1   691 – Steward Observatory, Kitt Peak-Spacewatch MPS 243975
2008 03 28.17996 10 39 33.80 +10 58 37.6 21.0 V 691 – Steward Observatory, Kitt Peak-Spacewatch MPS 243975
2008 03 28.19930 10 39 33.11 +10 58 43.6 21.3 V 691 – Steward Observatory, Kitt Peak-Spacewatch MPS 243975
2008 03 28.21553 10 39 32.56 +10 58 48.8 21.4 V 691 – Steward Observatory, Kitt Peak-Spacewatch MPS 243975
2009 04 02.42174 15 39 02.34 -05 57 04.5 20.9 V G96 – Mt. Lemmon Survey MPS 282473
2009 04 02.43215 15 39 02.19 -05 57 01.1 20.5 V G96 – Mt. Lemmon Survey MPS 282473
2009 04 02.44259 15 39 01.98 -05 56 57.1 20.8 V G96 – Mt. Lemmon Survey MPS 282473
2009 04 02.45312 15 39 01.87 -05 56 53.1 21.2 V G96 – Mt. Lemmon Survey MPS 282473
2009 04 18.28390 15 32 09.53 -04 17 34.2 20.3 V 691 – Steward Observatory, Kitt Peak-Spacewatch MPS 284232
2009 04 18.30153 15 32 08.89 -04 17 27.6 20.4 V 691 – Steward Observatory, Kitt Peak-Spacewatch MPS 284232
2009 04 18.31917 15 32 08.27 -04 17 20.0 20.0 V 691 – Steward Observatory, Kitt Peak-Spacewatch MPS 284232
